Weather in Assinovskaya

Russia / Chechen Republic     43°14′36″N   45°11′01″E
temp.,
°C
wind,
m/s
gust,
m/s
humid.,
%
clouds,
%
prec.,
mm/h
press.,
hPa
HPBL,
m
16 may, sun
sun1600:00+17wsw227060 0.0 101116
03:00+16sw11665 0.0 101111
06:00+18w11695 0.0 101032
09:00+24ne21513 0.0 1009425
12:00+28ene33425 0.0 1007965
15:00+30ene34370 0.0 10051271
18:00+26ne22550 0.0 100423
21:00+20wsw225976 0.0 100519
17 may, mon
mon1700:00+18sw224419 0.0 100516
03:00+16wsw22434 0.0 100512
06:00+18ssw11535 0.0 100513
09:00+24ene2241100 0.0 1005296
12:00+29ene33330 0.0 1004691
15:00+31nne3334100 0.0 10031247
18:00+26nnw3358100 0.0 100353
21:00+19w61276100 0.2 1007352
18 may, tue
tue1800:00+17w3672100 0.0 1006109
03:00+18w7138268 0.1 1008700
06:00+17wnw5108495 0.3 1010739
09:00+18wnw5875100 0.4 1011940
12:00+19wnw3473100 0.2 1012841
15:00+21sw016894 1.8 1011503
18:00+20wsw2278100 0.9 101238
21:00+16sw348853 1.8 101364
19 may, wed
wed1900:00+15wsw228920 0.3 101335
03:00+14wsw118842 0.3 101211
06:00+16s118219 0.0 101359
09:00+21n22640 0.0 1014740
12:00+24nne325450 0.0 10141631
15:00+24n235485 0.1 1014940
18:00+21wnw3667100 0.1 1016136
21:00+18w237399 0.1 101994
20 may, thu
thu2000:00+16w11834 0.0 101811
03:00+14ssw11886 0.0 101811
06:00+15wnw008154 0.0 101876
09:00+20e35636 0.0 1016882
12:00+26e45465 0.0 10131292
15:00+28ene66410 0.0 10111454
18:00+23ene48591 0.0 1012318
21:00+16ese01751 0.0 101211